Lid_Strength_Index
1 1 1 1 1 1 1 2 4 6 6 3 3 1 0 1 2 2 2 4 5 4 4 3 3 3 2 1 0 -0 -0 -1 -0 -0 -1 -1 -1 -1
2 2 1 1 1 1 1 1 2 4 6 3 2 1 0 1 2 2 2 6 6 5 5 5 4 4 3 3 2 1 0 -0 -0 -0 -0 -1 -1 -1
6 6 5 4 4 2 1 1 2 2 5 3 2 1 1 1 2 2 3 2 2 7 6 5 5 5 4 4 3 2 1 1 1 0 -0 -0 0 -0
8 8 7 6 7 6 5 5 4 2 3 4 2 2 2 1 1 1 2 2 3 4 5 6 6 5 6 5 5 4 3 3 2 2 1 1 0 1
7 7 8 7 7 7 8 8 7 6 5 4 3 2 2 1 2 2 2 2 2 5 5 5 6 6 6 5 5 5 5 5 4 4 3 2 2 2
7 7 7 7 7 8 8 8 7 7 6 6 5 4 3 2 2 3 3 3 3 3 5 6 6 7 7 6 7 7 7 6 5 5 5 4 4 3
7 7 7 8 9 8 8 8 7 8 9 8 8 6 5 4 5 4 4 4 3 4 4 5 5 6 7 8 7 8 7 7 6 6 6 5 5 5
9 9 8 8 7 7 7 7 7 8 8 8 8 8 7 6 4 5 4 5 6 4 6 6 6 7 6 6 7 7 7 6 6 6 6 6 6 7
10 10 10 10 10 9 9 8 8 7 7 7 8 7 7 6 5 6 6 5 5 5 7 6 6 7 6 6 7 7 7 7 7 7 6 7 7 8
11 12 11 12 11 11 11 12 11 10 9 8 7 7 7 6 5 5 6 7 7 5 8 7 5 7 6 7 7 7 7 7 7 7 7 7 8 9
13 12 13 13 12 12 13 13 13 12 10 9 8 8 7 7 7 8 9 9 9 7 7 7 5 7 11 9 8 8 8 8 7 7 8 8 9 9
14 14 13 14 13 12 14 14 15 14 13 13 11 10 9 8 7 8 8 9 8 8 6 8 8 12 13 15 13 13 10 9 9 8 9 9 9 10
16 16 15 14 13 13 13 14 15 14 14 14 13 11 10 9 8 8 7 7 7 7 5 7 9 13 10 13 15 14 12 10 10 10 9 9 9 10
17 17 16 15 14 14 15 14 14 15 16 17 17 16 15 13 10 8 7 7 5 5 4 6 7 8 10 12 13 15 13 11 11 11 11 10 10 10
17 17 16 16 16 16 16 16 17 18 18 19 19 18 17 16 15 13 8 7 7 5 5 4 6 7 8 9 9 15 14 13 12 12 12 12 12 12
17 18 18 18 17 18 18 17 17 17 18 18 18 18 17 16 16 15 15 9 8 7 6 6 7 6 9 8 9 13 13 15 13 13 12 12 11 12
20 22 22 21 21 20 20 18 17 17 18 18 18 18 17 17 17 15 16 15 11 9 8 9 9 7 7 8 10 11 13 14 14 14 14 14 14 14
22 23 23 22 22 21 21 21 19 20 19 19 18 18 18 18 18 17 16 16 16 11 9 8 10 11 12 11 10 11 13 13 15 14 14 15 16 16
23 23 23 23 22 22 22 22 22 21 21 21 21 20 20 20 20 19 17 16 17 17 11 9 10 10 12 13 12 12 13 13 15 15 14 14 15 16
22 23 24 23 23 24 23 24 23 23 23 23 22 22 21 21 22 21 19 19 18 17 16 9 10 10 11 12 12 13 13 13 14 15 15 16 16 15
23 24 24 24 24 24 24 24 24 25 25 24 24 23 23 23 23 22 20 19 18 17 17 14 9 9 10 13 15 16 14 13 13 14 15 17 19 19
23 24 24 24 24 25 25 25 25 26 25 25 25 24 23 23 23 22 21 21 20 18 17 15 10 10 11 13 13 16 15 15 14 14 14 15 19 21
24 24 24 24 24 25 26 26 26 26 26 25 25 25 25 25 23 20 21 21 20 19 19 17 16 11 11 13 13 16 17 16 16 16 16 15 15 16